Regional Weather Roundup
Issued by NWS

Home | Current Version | Previous Version | Text Only | Print | Product List | Glossary On
Versions: 1 2 3 4 5 6 7 8 9 10 11 12 13 14 15 16 17 18 19 20 21 22 23 24 25 26 27 28 29 30 31 32 33 34 35 36 37 38 39 40 41 42 43 44 45 46 47 48 49 50
000
ASCA42 TJSJ 260311
RWRPR
PUERTO RICO/U.S. VIRGIN ISLANDS HOURLY WEATHER ROUNDUP
NATIONAL WEATHER SERVICE SAN JUAN PR
1100 PM AST TUE NOV 25 2014

PRZ001-004-260400-
PUERTO RICO

CITY           SKY/WX    TMP DP  RH WIND       PRES   REMARKS
SAN JUAN LMM   PTCLDY    81  72  74 E7        30.02F
PONCE          PTCLDY    73  70  88 NE6       29.98S
AGUADILLA      CLEAR     73  70  88 SE6       30.05R
CEIBA          CLEAR     81  70  69 E10       30.05F
$$

PRZ006-007-260400-
U.S. VIRGIN ISLANDS

CITY           SKY/WX    TMP DP  RH WIND       PRES   REMARKS
CHARLOTTE AMA  CLEAR     79  72  78 E10       30.01
CHRISTIANSTED  CLEAR     79  70  73 NE10      30.01
$$

HOURLY WEATHER ROUNDUP FOR THE NEWS MEDIA

CITY           SKY/WX    TMP DP  RH WIND       PRES   REMARKS
MIAMI          MOCLDY    79  75  87 SE7       29.97F
ORLANDO        LGT RAIN  70  70 100 VRB5      29.93F
NEW YORK       CLOUDY    49  34  56 W6        30.14R
NEWARK         CLOUDY    49  31  49 W5        30.13R
CHICAGO        PTCLDY    18  14  84 S5        30.18R WCI  11
HARTFORD       CLOUDY    49  30  48 SW3       30.08R
BOSTON         CLOUDY    49  29  46 SW7       30.08R
DALLAS         PTCLDY    49  31  49 CALM      30.14F
PHILADELPHIA   CLOUDY    48  34  58 CALM      30.16R



USA.gov is the U.S. government's official web portal to all federal, state and local government web resources and services.